Voltar ao catálogo

STARLINK-35828

AtivoComunicaçõesVLEO
NORAD 66351·PAYLOAD·🇺🇸 United States

Lançado Nov 6, 2025 de Vandenberg Space Force Base

Loading…

Próximas Passagens (próximas 24 horas)

TLE

AtualizadoSource: CelesTrak SupGP

Época: Sep 15, 2026, 02:48 UTC

1 66351C 25254D   26258.11715278 -.00029540  00000+0 -95012-3 0  2583
2 66351  53.1591  71.0062 0001228  89.7440 142.4467 15.31709757    12

Acompanhe STARLINK-35828 em tempo real com AllMySat

Download on the App Store